Simultaneous Nadir Overpasses (SNOs) Predictions

Prediction of SNOs between FY3D and METOP-C Satellite Orbit:

Table of predicted SNOs for the next 14.0 days since TLE Epoch: 10/7/2023
Index Date (FY3D) Time (FY3D) Lat,Lon (FY3D) SZA (FY3D ) Date (METOP-C) Time (METOP-C) Lat,Lon (METOP-C) SZA (METOP-C ) Distance(km) Time Diff (sec)
1 10/20/2023 01:54:43 75.69, 147.32 85.81 10/20/2023 01:55:50 75.63, 149.91 85.77 71.62 67
2 10/20/2023 02:45:25 -75.53, -44.84 94.35 10/20/2023 02:46:35 -75.53, -43.11 94.34 48.09 70
3 10/20/2023 03:36:06 75.31, 123.17 85.45 10/20/2023 03:37:20 75.24, 123.36 85.38 9.19 74
4 10/20/2023 04:26:50 -75.24, -69.30 94.61 10/20/2023 04:28:03 -75.22, -69.36 94.62 2.12 73
5 10/20/2023 05:17:36 75.25, 97.98 85.41 10/20/2023 05:18:42 75.22, 97.96 85.39 3.02 66
6 10/20/2023 06:08:21 -75.22, -94.64 94.60 10/20/2023 06:09:24 -75.25, -94.62 94.57 3.42 63
7 10/20/2023 06:59:07 75.23, 72.64 85.43 10/20/2023 07:00:03 75.25, 72.71 85.44 2.57 56
8 10/20/2023 07:49:52 -75.21,-119.98 94.59 10/20/2023 07:50:46 -75.23,-120.01 94.56 2.83 54
9 10/20/2023 08:40:38 75.22, 47.30 85.44 10/20/2023 08:41:25 75.23, 47.31 85.45 1.07 47
10 10/20/2023 09:31:23 -75.20,-145.32 94.58 10/20/2023 09:32:08 -75.22,-145.41 94.56 3.17 45
11 10/20/2023 10:22:09 75.21, 21.96 85.45 10/20/2023 10:22:47 75.21, 21.92 85.45 1.27 38
12 10/20/2023 11:12:55 -75.23,-170.80 94.52 10/20/2023 11:13:30 -75.20,-170.80 94.55 3.77 35
13 10/20/2023 12:03:40 75.19, -3.38 85.46 10/20/2023 12:04:09 75.19, -3.48 85.46 2.83 29
14 10/20/2023 12:54:26 -75.22, 163.86 94.51 10/20/2023 12:54:51 -75.23, 163.95 94.50 2.64 25
15 10/20/2023 13:45:12 75.23, -28.86 85.52 10/20/2023 13:45:30 75.22, -28.73 85.52 3.76 18
16 10/20/2023 14:35:57 -75.20, 138.52 94.49 10/20/2023 14:36:13 -75.21, 138.55 94.49 0.96 16
17 10/20/2023 15:26:43 75.21, -54.20 85.53 10/20/2023 15:26:52 75.20, -54.13 85.52 2.60 9
18 10/20/2023 16:17:28 -75.19, 113.18 94.48 10/20/2023 16:17:35 -75.19, 113.16 94.48 0.75 7
19 10/20/2023 17:08:14 75.20, -79.54 85.55 10/20/2023 17:08:14 75.18, -79.53 85.53 2.29 0
20 10/20/2023 17:58:59 -75.18, 87.84 94.47 10/20/2023 17:58:57 -75.17, 87.76 94.48 2.43 2
21 10/20/2023 18:49:45 75.19,-104.88 85.56 10/20/2023 18:49:36 75.16,-104.92 85.53 3.12 9
22 10/20/2023 19:40:30 -75.17, 62.50 94.46 10/20/2023 19:40:18 -75.20, 62.51 94.42 3.57 12
23 10/20/2023 20:31:16 75.18,-130.22 85.57 10/20/2023 20:30:57 75.19,-130.18 85.59 2.15 19
24 10/20/2023 21:22:01 -75.15, 37.16 94.44 10/20/2023 21:21:40 -75.18, 37.11 94.42 3.21 21
25 10/20/2023 22:12:47 75.16,-155.56 85.58 10/20/2023 22:12:19 75.17,-155.57 85.59 1.09 28
26 10/20/2023 23:03:33 -75.19, 11.68 94.38 10/20/2023 23:03:02 -75.16, 11.72 94.41 3.17 31
27 10/20/2023 23:54:18 75.15, 179.10 85.60 10/20/2023 23:53:41 75.15, 179.03 85.60 1.90 37
28 10/21/2023 00:45:03 -75.17, -13.66 94.37 10/21/2023 00:44:23 -75.14, -13.68 94.41 3.63 40



Historial Predications of SNOs between FY3D and METOP-C
